DW4993 Weather Reports


time (UTC)temp
F
wind
direction
speed
knots
gust
knots
rain 1hr
in
rain 24hr
in
rain mn
in
humidity
%
barometer
mb
20260509022306 63 54 1.7 4.3 0.00 0.00 0.00 28 1006.6
20260509021305 63 50 2.6 10.4 0.00 0.00 0.00 27 1006.5
20260509020804 63 60 2.6 5.2 0.00 0.00 0.00 27 1006.5
20260509020304 63 64 1.7 6.1 0.00 0.00 0.00 27 1006.4
20260509015805 63 52 1.7 7.8 0.00 0.00 0.00 27 1006.4
20260509015306 64 71 2.6 10.4 0.00 0.00 0.00 27 1006.4
20260509014804 64 57 2.6 6.1 0.00 0.00 0.00 27 1006.3
20260509013805 64 31 1.7 5.2 0.00 0.00 0.00 26 1006.3
20260509013304 64 44 1.7 4.3 0.00 0.00 0.00 26 1006.3
20260509012804 64 65 4.3 8.7 0.00 0.00 0.00 26 1006.3
20260509011805 64 42 2.6 7.8 0.00 0.00 0.00 26 1006.2
20260509011304 64 67 5.2 10.4 0.00 0.00 0.00 26 1006.2
20260509010805 65 56 4.3 10.4 0.00 0.00 0.00 26 1006.2
20260509005805 65 58 3.5 12.2 0.00 0.00 0.00 25 1006.1
20260509005306 65 61 6.1 10.4 0.00 0.00 0.00 25 1006.1
20260509004804 65 55 4.3 10.4 0.00 0.00 0.00 25 1006.1
20260509004304 65 60 2.6 8.7 0.00 0.00 0.00 26 1006.0
20260509003805 65 53 4.3 10.4 0.00 0.00 0.00 25 1006.0
20260509003305 66 49 6.1 10.4 0.00 0.00 0.00 25 1006.0
20260509002805 66 22 3.5 12.2 0.00 0.00 0.00 26 1006.0
20260509002306 66 37 2.6 7.0 0.00 0.00 0.00 25 1006.0
20260509001804 66 51 4.3 7.8 0.00 0.00 0.00 25 1006.0
20260509001304 66 39 4.3 7.8 0.00 0.00 0.00 25 1006.0
20260509000804 66 31 3.5 7.8 0.00 0.00 0.00 25 1005.9
20260509000305 66 25 3.5 8.7 0.00 0.00 0.00 24 1006.0
20260508235804 66 57 4.3 7.8 0.00 0.00 0.00 24 1005.9
20260508235306 66 70 2.6 7.8 0.00 0.00 0.00 25 1005.9
20260508234804 66 56 2.6 8.7 0.00 0.00 0.00 24 1006.0
20260508233804 67 61 5.2 10.4 0.00 0.00 0.00 24 1006.0
20260508233304 67 69 4.3 11.3 0.00 0.00 0.00 24 1006.0
20260508232804 67 23 4.3 8.7 0.00 0.00 0.00 24 1006.0
20260508232307 67 47 4.3 10.4 0.00 0.00 0.00 24 1006.0
20260508231804 67 46 2.6 10.4 0.00 0.00 0.00 24 1005.9
20260508231304 68 47 4.3 10.4 0.00 0.00 0.00 23 1005.9
20260508230805 68 39 3.5 10.4 0.00 0.00 0.00 23 1005.8
20260508225804 69 38 5.2 10.4 0.00 0.00 0.00 24 1005.8
20260508225306 69 32 3.5 10.4 0.00 0.00 0.00 23 1005.7
20260508224805 69 40 3.5 7.8 0.00 0.00 0.00 23 1005.7
20260508224304 69 46 4.3 7.8 0.00 0.00 0.00 22 1005.6
20260508223804 69 44 4.3 10.4 0.00 0.00 0.00 22 1005.6
20260508223304 70 49 5.2 11.3 0.00 0.00 0.00 22 1005.6
20260508222805 70 42 4.3 10.4 0.00 0.00 0.00 23 1005.7
20260508222306 70 25 7.0 12.2 0.00 0.00 0.00 22 1005.6
20260508221804 70 46 3.5 10.4 0.00 0.00 0.00 23 1005.7
20260508221304 70 38 5.2 12.2 0.00 0.00 0.00 22 1005.7
20260508220805 71 39 4.3 11.3 0.00 0.00 0.00 21 1005.6
20260508220304 70 67 5.2 10.4 0.00 0.00 0.00 22 1005.6
20260508214304 69 49 6.1 11.3 0.00 0.00 0.00 22 1005.7
20260508213804 69 48 4.3 10.4 0.00 0.00 0.00 23 1005.6
20260508213304 69 46 3.5 11.3 0.00 0.00 0.00 23 1005.8
20260508212805 68 46 2.6 8.7 0.00 0.00 0.00 22 1005.8
20260508212306 68 30 2.6 10.4 0.00 0.00 0.00 23 1005.8
20260508211804 69 22 4.3 10.4 0.00 0.00 0.00 23 1005.7
20260508211304 70 35 2.6 10.4 0.00 0.00 0.00 22 1005.8
20260508210805 71 45 4.3 10.4 0.00 0.00 0.00 22 1005.8
20260508210304 72 32 4.3 10.4 0.00 0.00 0.00 21 1006.0
20260508205804 72 15 2.6 11.3 0.00 0.00 0.00 23 1005.9
20260508205306 71 42 4.3 11.3 0.00 0.00 0.00 23 1005.9
20260508204805 71 36 4.3 10.4 0.00 0.00 0.00 21 1005.9
20260508203804 71 22 6.1 13.9 0.00 0.00 0.00 22 1006.0
20260508203304 71 55 4.3 11.3 0.00 0.00 0.00 21 1006.0
20260508202805 70 20 3.5 12.2 0.00 0.00 0.00 22 1005.9
20260508202307 70 39 3.5 10.4 0.00 0.00 0.00 23 1006.1
20260508201304 69 1 2.6 7.8 0.00 0.00 0.00 22 1006.0
20260508195805 69 37 5.2 12.2 0.00 0.00 0.00 22 1006.1
20260508195306 69 38 3.5 10.4 0.00 0.00 0.00 23 1006.1
20260508194805 69 46 5.2 10.4 0.00 0.00 0.00 21 1006.1
20260508194304 69 41 3.5 7.8 0.00 0.00 0.00 24 1006.2
20260508193804 69 43 4.3 10.4 0.00 0.00 0.00 22 1006.2
20260508192805 70 37 3.5 11.3 0.00 0.00 0.00 23 1006.2
20260508192306 70 31 5.2 10.4 0.00 0.00 0.00 22 1006.3
20260508191305 70 36 4.3 7.8 0.00 0.00 0.00 24 1006.3
20260508190805 70 35 4.3 10.4 0.00 0.00 0.00 23 1006.4
20260508190305 70 30 4.3 13.0 0.00 0.00 0.00 22 1006.5
20260508185804 70 18 2.6 10.4 0.00 0.00 0.00 24 1006.5
20260508185306 70 36 5.2 12.2 0.00 0.00 0.00 23 1006.6
20260508184805 69 11 2.6 8.7 0.00 0.00 0.00 25 1006.6
20260508184304 68 14 5.2 11.3 0.00 0.00 0.00 25 1006.7
20260508183804 68 48 5.2 11.3 0.00 0.00 0.00 23 1006.7
20260508183305 68 23 5.2 10.4 0.00 0.00 0.00 23 1006.7
20260508182805 68 8 4.3 10.4 0.00 0.00 0.00 25 1006.7
20260508182306 68 44 4.3 7.8 0.00 0.00 0.00 23 1006.7
20260508181805 68 18 6.1 12.2 0.00 0.00 0.00 24 1006.8
20260508181305 68 21 5.2 11.3 0.00 0.00 0.00 26 1006.8
20260508180304 66 9 5.2 13.9 0.00 0.00 0.00 27 1006.9
20260508175804 66 31 2.6 10.4 0.00 0.00 0.00 25 1006.8
20260508175306 66 27 2.6 7.8 0.00 0.00 0.00 26 1006.8
20260508174805 66 21 4.3 13.0 0.00 0.00 0.00 26 1006.8
20260508174304 66 16 5.2 12.2 0.00 0.00 0.00 27 1006.9
20260508173804 66 39 4.3 10.4 0.00 0.00 0.00 27 1006.9
20260508173304 65 20 5.2 10.4 0.00 0.00 0.00 26 1006.8
20260508172307 66 11 3.5 13.0 0.00 0.00 0.00 27 1007.0
20260508171804 66 28 3.5 8.7 0.00 0.00 0.00 26 1006.9
20260508171305 66 23 4.3 7.8 0.00 0.00 0.00 25 1007.0
20260508170804 65 42 4.3 11.3 0.00 0.00 0.00 27 1007.0
20260508170304 64 27 5.2 10.4 0.00 0.00 0.00 27 1007.1
20260508165805 64 45 4.3 10.4 0.00 0.00 0.00 27 1007.2
20260508165306 64 13 5.2 13.0 0.00 0.00 0.00 26 1007.2
20260508164804 64 35 5.2 10.4 0.00 0.00 0.00 26 1007.1
20260508164305 65 40 6.1 11.3 0.00 0.00 0.00 25 1007.1
20260508163806 66 40 4.3 10.4 0.00 0.00 0.00 26 1007.1
20260508162805 65 20 6.1 13.0 0.00 0.00 0.00 26 1007.2
20260508161305 64 26 4.3 10.4 0.00 0.00 0.00 26 1007.2
20260508160804 63 15 6.1 12.2 0.00 0.00 0.00 27 1007.3
20260508160304 63 41 5.2 12.2 0.00 0.00 0.00 27 1007.3
20260508155805 63 34 6.1 13.9 0.00 0.00 0.00 27 1007.3
20260508155306 63 34 5.2 13.0 0.00 0.00 0.00 28 1007.3
20260508154304 63 27 6.1 10.4 0.00 0.00 0.00 30 1007.3
20260508153805 62 16 4.3 10.4 0.00 0.00 0.00 30 1007.3
20260508153303 62 25 5.2 12.2 0.00 0.00 0.00 31 1007.3
20260508152805 62 13 5.2 12.2 0.00 0.00 0.00 31 1007.2
20260508152306 61 14 6.1 10.4 0.00 0.00 0.00 32 1007.3
20260508151807 60 30 4.3 10.4 0.00 0.00 0.00 32 1007.3
20260508150806 60 24 5.2 12.2 0.00 0.00 0.00 32 1007.2
20260508150306 59 20 5.2 10.4 0.00 0.00 0.00 34 1007.2
20260508145805 58 26 4.3 8.7 0.00 0.00 0.00 35 1007.2
20260508145307 57 10 1.7 7.0 0.00 0.00 0.00 37 1007.3
20260508144805 57 4 3.5 8.7 0.00 0.00 0.00 37 1007.3
20260508144307 56 11 2.6 10.4 0.00 0.00 0.00 38 1007.4
20260508143805 56 352 4.3 8.7 0.00 0.00 0.00 38 1007.4
20260508143305 55 0 5.2 7.8 0.00 0.00 0.00 38 1007.4
20260508142307 54 12 4.3 8.7 0.00 0.00 0.00 40 1007.4
20260508141805 53 6 3.5 8.7 0.00 0.00 0.00 41 1007.5
20260508141305 53 0 3.5 8.7 0.00 0.00 0.00 42 1007.5
20260508140806 53 1 2.6 5.2 0.00 0.00 0.00 43 1007.6
20260508135805 52 16 1.7 4.3 0.00 0.00 0.00 43 1007.5
20260508135306 52 357 0.9 4.3 0.00 0.00 0.00 44 1007.5
20260508134307 51 14 2.6 5.2 0.00 0.00 0.00 44 1007.4
20260508133805 51 351 2.6 5.2 0.00 0.00 0.00 45 1007.4
20260508133305 51 359 2.6 7.0 0.00 0.00 0.00 46 1007.4
20260508132805 50 2 1.7 7.8 0.00 0.00 0.00 46 1007.4
20260508132307 50 5 2.6 7.8 0.00 0.00 0.00 47 1007.3
20260508131806 50 355 4.3 7.8 0.00 0.00 0.00 47 1007.3
20260508131305 49 12 3.5 8.7 0.00 0.00 0.00 48 1007.3
20260508130805 48 4 2.6 7.8 0.00 0.00 0.00 50 1007.3
20260508130306 48 13 2.6 4.3 0.00 0.00 0.00 52 1007.3
20260508125306 46 337 2.6 5.2 0.00 0.00 0.00 54 1007.3
20260508124306 45 1 1.7 2.6 0.00 0.00 0.00 58 1007.3
20260508123805 45 356 1.7 2.6 0.00 0.00 0.00 60 1007.2
20260508123306 45 355 0.0 0.0 0.00 0.00 0.00 61 1007.2
20260508122805 45 355 0.0 0.0 0.00 0.00 0.00 60 1007.1
20260508122307 44 355 0.9 1.7 0.00 0.00 0.00 61 1007.1
20260508121805 44 355 0.9 2.6 0.00 0.00 0.00 61 1007.1
20260508121305 44 355 0.9 1.7 0.00 0.00 0.00 62 1007.1
20260508120805 43 355 0.0 0.9 0.00 0.00 0.00 64 1007.1
20260508120306 43 355 0.0 0.0 0.00 0.00 0.00 65 1007.0
20260508115805 43 355 0.0 1.7 0.00 0.00 0.00 66 1007.0
20260508115306 43 355 0.0 1.7 0.00 0.00 0.00 67 1007.0
20260508114806 42 355 0.0 2.6 0.00 0.00 0.00 68 1007.0
20260508113805 42 355 0.0 0.0 0.00 0.00 0.00 69 1006.9
20260508113306 42 355 0.0 0.0 0.00 0.00 0.00 68 1006.9
20260508112805 43 355 0.0 0.0 0.00 0.00 0.00 68 1006.9
20260508112307 43 355 0.0 0.0 0.00 0.00 0.00 67 1006.9
20260508111806 43 355 0.0 0.0 0.00 0.00 0.00 67 1006.9
20260508110806 43 355 0.0 0.0 0.00 0.00 0.00 67 1006.7
20260508110306 43 355 0.0 0.0 0.00 0.00 0.00 67 1006.7
20260508105806 43 355 0.0 0.0 0.00 0.00 0.00 66 1006.7
20260508105307 44 355 0.0 0.0 0.00 0.00 0.00 66 1006.7
20260508104805 44 355 0.0 0.0 0.00 0.00 0.00 66 1006.7
20260508104305 44 355 0.0 0.9 0.00 0.00 0.00 65 1006.7
20260508103806 44 355 0.0 0.0 0.00 0.00 0.00 64 1006.7
20260508103306 45 355 0.0 0.0 0.00 0.00 0.00 64 1006.7
20260508102805 45 355 0.0 0.9 0.00 0.00 0.00 63 1006.7
20260508102306 46 355 0.0 0.9 0.00 0.00 0.00 62 1006.7
20260508101806 46 355 0.0 1.7 0.00 0.00 0.00 62 1006.7
20260508100305 47 310 0.0 1.7 0.00 0.00 0.00 60 1006.5
20260508095807 47 310 0.0 2.6 0.00 0.00 0.00 61 1006.5
20260508095307 47 310 0.0 0.0 0.00 0.00 0.00 61 1006.5
20260508094805 47 310 0.0 0.9 0.00 0.00 0.00 61 1006.6
20260508094305 47 310 0.9 1.7 0.00 0.00 0.00 62 1006.6
20260508093806 46 310 0.9 1.7 0.00 0.00 0.00 62 1006.6
20260508093305 46 310 0.0 1.7 0.00 0.00 0.00 62 1006.6
20260508092805 46 310 0.9 1.7 0.00 0.00 0.00 63 1006.7
20260508091306 46 311 0.0 0.9 0.00 0.00 0.00 62 1006.8
20260508090805 46 311 0.0 0.9 0.00 0.00 0.00 62 1006.8
20260508090306 46 311 0.0 0.9 0.00 0.00 0.00 63 1006.9
20260508085805 46 311 0.0 0.9 0.00 0.00 0.00 62 1007.0
20260508085307 46 311 0.0 0.0 0.00 0.00 0.00 60 1007.0
20260508084805 46 311 0.0 0.9 0.00 0.00 0.00 59 1007.1
20260508082805 48 311 0.0 0.9 0.00 0.00 0.00 56 1007.0
20260508082306 48 311 0.9 1.7 0.00 0.00 0.00 56 1007.0
20260508081805 48 311 0.9 1.7 0.00 0.00 0.00 56 1007.0
20260508081306 48 311 0.0 0.9 0.00 0.00 0.00 56 1007.0
20260508080806 48 311 0.0 0.0 0.00 0.00 0.00 55 1007.0
20260508080306 48 311 0.0 0.0 0.00 0.00 0.00 54 1007.1
20260508075308 49 311 0.0 0.0 0.00 0.00 0.00 53 1007.1
20260508074806 49 311 0.0 0.0 0.00 0.00 0.00 53 1007.1
20260508074306 49 311 0.0 0.0 0.00 0.00 0.00 52 1007.1
20260508073806 49 311 0.0 0.0 0.00 0.00 0.00 52 1007.0
20260508073305 49 311 0.0 0.0 0.00 0.00 0.00 51 1007.0
20260508072806 49 311 0.0 0.9 0.00 0.00 0.00 51 1007.1
20260508072307 49 311 0.0 0.9 0.00 0.00 0.00 51 1007.0
20260508071305 49 311 0.0 0.0 0.00 0.00 0.00 52 1007.0
20260508070806 49 311 0.0 1.7 0.00 0.00 0.00 53 1007.0
20260508070305 49 311 0.0 0.9 0.00 0.00 0.00 52 1006.9
20260508065307 50 311 0.0 0.0 0.00 0.00 0.00 50 1006.9
20260508064806 51 311 0.0 0.0 0.00 0.00 0.00 49 1006.9
20260508064306 51 311 0.0 0.0 0.00 0.00 0.00 49 1006.9
20260508063805 52 311 0.0 0.0 0.00 0.00 0.00 48 1006.9
20260508063305 52 311 0.0 2.6 0.00 0.00 0.00 48 1007.0
20260508062806 52 310 0.9 1.7 0.00 0.00 0.00 48 1007.0
20260508062306 53 269 0.0 0.0 0.00 0.00 0.00 46 1007.0
20260508061805 53 269 0.0 0.0 0.00 0.00 0.00 45 1007.0
20260508061306 54 269 0.0 0.0 0.00 0.00 0.00 45 1006.9
20260508060819 53 269 0.0 0.0 0.00 0.00 0.00 45 1007.0
20260508055805 53 269 0.0 0.9 0.00 0.00 0.00 45 1006.9
20260508055306 53 269 0.0 0.9 0.00 0.00 0.00 44 1007.0
20260508054306 54 269 0.0 0.9 0.00 0.00 0.00 43 1007.0
20260508053805 54 269 0.0 0.9 0.00 0.00 0.00 42 1007.0
20260508053305 54 269 0.0 0.9 0.00 0.00 0.00 42 1007.0
20260508052806 55 269 0.0 0.0 0.00 0.00 0.00 40 1007.0
20260508052307 55 269 0.0 0.9 0.00 0.00 0.00 39 1007.0
20260508051806 56 269 0.0 0.9 0.00 0.00 0.00 40 1007.1
20260508051305 56 269 0.0 0.9 0.00 0.00 0.00 38 1007.1
20260508050807 56 269 0.9 2.6 0.00 0.00 0.00 39 1007.1
20260508050305 55 269 1.7 2.6 0.00 0.00 0.00 40 1007.1
20260508045805 55 293 2.6 2.6 0.00 0.00 0.00 41 1007.2
20260508045307 55 294 0.0 0.0 0.00 0.00 0.00 40 1007.2
20260508044806 55 294 0.0 0.0 0.00 0.00 0.00 40 1007.2
20260508044305 55 294 0.0 0.0 0.00 0.00 0.00 41 1007.2
20260508043806 55 294 0.0 0.0 0.00 0.00 0.00 40 1007.1
20260508043306 55 294 0.0 0.0 0.00 0.00 0.00 40 1007.1
20260508042806 56 294 0.0 0.0 0.00 0.00 0.00 39 1007.1
20260508042307 56 294 0.0 0.0 0.00 0.00 0.00 39 1007.1
20260508041805 56 294 0.0 0.0 0.00 0.00 0.00 39 1007.0
20260508041306 56 294 0.0 0.0 0.00 0.00 0.00 38 1007.1
20260508040805 57 294 0.0 0.0 0.00 0.00 0.00 38 1007.1
20260508040305 57 294 0.0 0.0 0.00 0.00 0.00 37 1007.1
20260508035307 58 294 0.0 0.0 0.00 0.00 0.00 36 1007.1
20260508034805 59 294 0.0 0.0 0.00 0.00 0.00 35 1007.1
20260508034305 59 294 0.0 0.0 0.00 0.00 0.00 36 1007.0
20260508033805 60 294 0.0 0.0 0.00 0.00 0.00 34 1007.0
20260508033306 60 294 0.0 0.0 0.00 0.00 0.00 32 1007.0
20260508032306 61 294 0.0 0.0 0.00 0.00 0.00 31 1007.0
20260508031805 62 294 0.0 0.0 0.00 0.00 0.00 31 1007.0
20260508031306 62 294 0.0 0.0 0.00 0.00 0.00 30 1006.8
20260508030805 63 294 0.0 0.9 0.00 0.00 0.00 29 1006.9
20260508030305 63 294 0.0 1.7 0.00 0.00 0.00 29 1006.8
20260508025805 63 294 0.9 1.7 0.00 0.00 0.00 29 1006.8
20260508025306 64 294 0.9 5.2 0.00 0.00 0.00 30 1006.8
20260508023805 64 230 2.6 7.0 0.00 0.00 0.00 29 1006.7
20260508023306 64 267 1.7 5.2 0.00 0.00 0.00 28 1006.8